Terminal Aerodrome Forecast
Issued by NWS

Home | Current Version | Previous Version | Text Only | Print | Product List | Glossary On
Versions: 1 2 3 4 5 6 7 8 9 10 11 12 13 14 15 16 17 18 19 20 21 22 23 24 25 26 27 28 29 30 31 32 33 34 35 36 37 38 39 40 41 42 43
000
FTAK31 PAFA 181506 AAA
TAFASC
TAF AMD
PASC 181506Z 1815/1912 08016G24KT 2SM -RA BR OVC003
      TEMPO 1815/1818 1/2SM FG OVC002
     FM182100 08017G27KT 1 1/2SM BR OVC004
     FM190000 07020KT 4SM BR OVC006=

USA.gov is the U.S. government's official web portal to all federal, state and local government web resources and services.